Clinton-Sherman, OK

12:02 PM CDT on July 26, 2017 (GMT -0500)
Clinton-Sherman

Weather History for KCSM - November, 2012

Change the Weather History Date:

Saturday, November 24, 2012

  Actual Average Record
Temperature  
Mean Temperature 46 °F -  
Max Temperature 61 °F 55 °F 72 °F (2010)
Min Temperature 30 °F 34 °F 18 °F (2003)
Degree Days  
Heating Degree Days 20    
Moisture  
Dew Point 21 °F    
Average Humidity 40    
Maximum Humidity 64    
Minimum Humidity 20    
Precipitation  
Precipitation 0.00 in - - ()
Sea Level Pressure  
Sea Level Pressure 30.19 in    
Wind  
Wind Speed 15 mph (South)    
Max Wind Speed 24 mph    
Max Gust Speed 32 mph    
Visibility 10 miles    
Events      
Averages and records for this station are not official NWS values.
T = Trace of Precipitation, MM = Missing Value Source: NWS Daily Summary

Daily Weather History Graph

Daily Weather History Graph

Search for Another Location

Airport or City:

Trip Planner

Search our weather history database for the weather conditions in past years. The results will help you decide how hot, cold, wet, or windy it might be!

Date:

Astronomy

Nov. 24, 2012 Rise Set
Actual Time 7:21 AM CST 5:25 PM CST
Civil Twilight 6:53 AM CST 5:53 PM CST
Nautical Twilight 6:22 AM CST 6:24 PM CST
Astronomical Twilight 5:52 AM CST 6:55 PM CST
Moon 3:06 PM CST (11/24) 3:45 AM CST (11/24)
Length of Visible Light 10h 59m
Length of Day
10h 04m
Waxing Gibbous, 87% of the Moon is Illuminated
Nov 24
Waxing Gibbous
Nov 28
Full
Dec 6
Last Quarter
Dec 13
New
Dec 19
First Quarter

Hourly Weather History & Observations

Time (CST) Temp. Windchill Dew Point Humidity Pressure Visibility Wind Dir Wind Speed Gust Speed Precip Events Conditions
12:53 AM 36.0 °F 28.0 °F 21.0 °F 55% 30.43 in 10.0 mi ESE 11.5 mph - N/A   Clear
1:53 AM 30.9 °F 24.3 °F 19.9 °F 64% 30.43 in 10.0 mi SSE 6.9 mph - N/A   Clear
2:53 AM 32.0 °F 24.2 °F 19.9 °F 61% 30.42 in 10.0 mi SSW 9.2 mph - N/A   Clear
3:53 AM 32.0 °F 23.0 °F 21.0 °F 64% 30.40 in 10.0 mi SSW 11.5 mph - N/A   Clear
4:53 AM 34.0 °F 26.6 °F 21.0 °F 59% 30.38 in 10.0 mi SSW 9.2 mph - N/A   Clear
6:53 AM 36.0 °F 25.6 °F 19.9 °F 52% 30.36 in 10.0 mi SSW 18.4 mph - N/A   Clear
7:53 AM 35.1 °F 26.4 °F 21.0 °F 57% 30.36 in 10.0 mi SSW 12.7 mph - N/A   Clear
8:53 AM 39.0 °F 29.6 °F 21.9 °F 50% 30.34 in 10.0 mi SSW 18.4 mph - N/A   Clear
9:53 AM 45.0 °F 36.9 °F 21.9 °F 40% 30.32 in 10.0 mi South 20.7 mph 32.2 mph N/A   Clear
10:53 AM 51.1 °F - 23.0 °F 33% 30.29 in 10.0 mi SSW 20.7 mph - N/A   Clear
11:53 AM 55.0 °F - 23.0 °F 29% 30.24 in 10.0 mi South 18.4 mph 29.9 mph N/A   Clear
12:53 PM 57.9 °F - 19.9 °F 23% 30.17 in 10.0 mi SSW 21.9 mph 32.2 mph N/A   Clear
1:53 PM 60.1 °F - 19.0 °F 20% 30.13 in 10.0 mi South 24.2 mph 31.1 mph N/A   Clear
2:53 PM 61.0 °F - 19.0 °F 20% 30.07 in 10.0 mi South 21.9 mph 32.2 mph N/A   Clear
3:53 PM 61.0 °F - 19.0 °F 20% 30.05 in 10.0 mi South 23.0 mph 29.9 mph N/A   Clear
4:53 PM 57.9 °F - 21.9 °F 25% 30.04 in 10.0 mi South 18.4 mph - N/A   Clear
5:53 PM 55.0 °F - 24.1 °F 30% 30.02 in 10.0 mi South 15.0 mph - N/A   Clear
6:53 PM 52.0 °F - 24.1 °F 34% 30.02 in 10.0 mi South 15.0 mph - N/A   Clear
7:53 PM 50.0 °F - 25.0 °F 38% 30.03 in 10.0 mi South 15.0 mph - N/A   Clear
8:53 PM 48.9 °F - 21.9 °F 35% 30.01 in 10.0 mi South 17.3 mph - N/A   Clear
9:53 PM 50.0 °F - 21.0 °F 32% 29.99 in 10.0 mi South 18.4 mph - N/A   Clear
10:53 PM 48.9 °F - 21.9 °F 35% 29.97 in 10.0 mi South 18.4 mph - N/A   Clear
11:53 PM 46.0 °F 39.3 °F 23.0 °F 40% 29.96 in 10.0 mi South 16.1 mph - N/A   Clear